| time (UTC) | temp F | wind direction | speed knots | gust knots | rain 1hr in | rain 24hr in | rain mn in | humidity % | barometer mb |
| 20260905211602 | 61 | 338 | 0.0 | 0.0 | 0.00 | 0.00 | 0.06 | 68 | 1022.1 |
| 20260905211052 | 61 | 352 | 0.0 | 0.9 | 0.00 | 0.00 | 0.06 | 68 | 1022.1 |
| 20260905210544 | 61 | 29 | 0.0 | 1.7 | 0.00 | 0.00 | 0.06 | 69 | 1021.9 |
| 20260905210040 | 61 | 4 | 0.9 | 1.7 | 0.00 | 0.00 | 0.06 | 69 | 1021.9 |
| 20260905205522 | 62 | 36 | 0.0 | 0.9 | 0.00 | 0.00 | 0.06 | 68 | 1021.9 |
| 20260905205023 | 62 | 333 | 0.9 | 1.7 | 0.00 | 0.00 | 0.06 | 68 | 1021.8 |
| 20260905204503 | 62 | 45 | 0.0 | 0.9 | 0.00 | 0.00 | 0.06 | 68 | 1021.8 |
| 20260905204007 | 63 | 66 | 0.0 | 0.0 | 0.00 | 0.00 | 0.06 | 66 | 1021.8 |
| 20260905203442 | 63 | 88 | 0.0 | 0.0 | 0.00 | 0.00 | 0.06 | 66 | 1021.8 |
| 20260905202948 | 63 | 250 | 0.0 | 0.9 | 0.00 | 0.00 | 0.06 | 65 | 1021.7 |
| 20260905202422 | 63 | 338 | 0.0 | 0.9 | 0.00 | 0.00 | 0.06 | 65 | 1021.7 |
| 20260905201912 | 63 | 68 | 0.0 | 0.9 | 0.00 | 0.00 | 0.06 | 65 | 1021.7 |
| 20260905201402 | 63 | 45 | 0.0 | 1.7 | 0.00 | 0.00 | 0.06 | 65 | 1021.7 |
| 20260905200852 | 64 | 74 | 0.0 | 0.9 | 0.00 | 0.00 | 0.06 | 63 | 1021.5 |
| 20260905200342 | 64 | 90 | 0.0 | 0.9 | 0.00 | 0.00 | 0.06 | 63 | 1021.5 |
| 20260905195832 | 65 | 88 | 0.0 | 0.9 | 0.00 | 0.00 | 0.06 | 61 | 1021.4 |
| 20260905195337 | 65 | 99 | 0.0 | 0.9 | 0.00 | 0.00 | 0.06 | 61 | 1021.4 |
| 20260905194812 | 65 | 90 | 0.0 | 0.0 | 0.00 | 0.00 | 0.06 | 60 | 1021.2 |
| 20260905194302 | 65 | 108 | 0.0 | 0.9 | 0.00 | 0.00 | 0.06 | 60 | 1021.2 |
| 20260905193752 | 66 | 151 | 0.0 | 0.9 | 0.00 | 0.00 | 0.06 | 58 | 1021.1 |
| 20260905193259 | 66 | 68 | 0.0 | 0.0 | 0.00 | 0.00 | 0.06 | 58 | 1021.1 |
| 20260905192732 | 66 | 22 | 0.0 | 1.7 | 0.00 | 0.00 | 0.06 | 57 | 1020.9 |
| 20260905192222 | 66 | 27 | 0.0 | 0.9 | 0.00 | 0.00 | 0.06 | 57 | 1020.9 |
| 20260905191712 | 66 | 22 | 0.0 | 0.9 | 0.00 | 0.00 | 0.06 | 57 | 1020.9 |
| 20260905191201 | 67 | 287 | 0.9 | 0.9 | 0.00 | 0.00 | 0.06 | 56 | 1020.9 |
| 20260905190707 | 67 | 270 | 0.9 | 1.7 | 0.00 | 0.00 | 0.06 | 56 | 1020.9 |
| 20260905190156 | 67 | 266 | 0.9 | 2.6 | 0.00 | 0.00 | 0.06 | 55 | 1020.8 |
| 20260905185632 | 67 | 346 | 0.9 | 1.7 | 0.00 | 0.00 | 0.06 | 55 | 1020.8 |
| 20260905185122 | 67 | 3 | 0.0 | 0.9 | 0.00 | 0.00 | 0.06 | 53 | 1020.6 |
| 20260905184627 | 67 | 18 | 0.0 | 0.0 | 0.00 | 0.00 | 0.06 | 53 | 1020.6 |
| 20260905184101 | 68 | 10 | 0.0 | 0.9 | 0.00 | 0.00 | 0.06 | 50 | 1020.3 |
| 20260905183552 | 68 | 310 | 0.9 | 1.7 | 0.00 | 0.00 | 0.06 | 50 | 1020.3 |
| 20260905183041 | 69 | 332 | 0.9 | 1.7 | 0.00 | 0.00 | 0.06 | 50 | 1020.4 |
| 20260905182531 | 69 | 336 | 0.9 | 1.7 | 0.00 | 0.00 | 0.06 | 50 | 1020.4 |
| 20260905182022 | 69 | 319 | 0.9 | 1.7 | 0.00 | 0.00 | 0.06 | 47 | 1020.2 |
| 20260905181512 | 69 | 324 | 0.9 | 1.7 | 0.00 | 0.00 | 0.06 | 47 | 1020.2 |
| 20260905181001 | 70 | 297 | 0.9 | 1.7 | 0.00 | 0.00 | 0.06 | 47 | 1020.1 |
| 20260905180451 | 70 | 315 | 0.9 | 1.7 | 0.00 | 0.00 | 0.06 | 47 | 1020.1 |
| 20260905175956 | 70 | 329 | 0.9 | 1.7 | 0.00 | 0.00 | 0.06 | 47 | 1020.0 |
| 20260905175431 | 70 | 308 | 0.9 | 1.7 | 0.00 | 0.00 | 0.06 | 47 | 1020.0 |
| 20260905174936 | 70 | 301 | 1.7 | 2.6 | 0.00 | 0.00 | 0.06 | 46 | 1019.8 |
| 20260905174414 | 70 | 328 | 1.7 | 2.6 | 0.00 | 0.00 | 0.06 | 46 | 1019.8 |
| 20260905173902 | 70 | 323 | 1.7 | 2.6 | 0.00 | 0.00 | 0.06 | 46 | 1019.8 |
| 20260905173351 | 70 | 299 | 1.7 | 2.6 | 0.00 | 0.00 | 0.06 | 46 | 1019.8 |
| 20260905172840 | 71 | 307 | 1.7 | 4.3 | 0.00 | 0.00 | 0.06 | 45 | 1019.7 |
| 20260905172331 | 71 | 325 | 2.6 | 5.2 | 0.00 | 0.00 | 0.06 | 44 | 1019.5 |
| 20260905171821 | 71 | 348 | 2.6 | 4.3 | 0.00 | 0.00 | 0.06 | 44 | 1019.5 |
| 20260905171311 | 72 | 292 | 2.6 | 5.2 | 0.00 | 0.00 | 0.06 | 42 | 1019.5 |
| 20260905170801 | 72 | 288 | 2.6 | 4.3 | 0.00 | 0.00 | 0.06 | 42 | 1019.5 |
| 20260905170252 | 72 | 318 | 3.5 | 5.2 | 0.00 | 0.00 | 0.06 | 41 | 1019.5 |
| 20260905165741 | 72 | 288 | 3.5 | 6.1 | 0.00 | 0.00 | 0.06 | 41 | 1019.5 |
| 20260905165231 | 73 | 319 | 4.3 | 7.0 | 0.00 | 0.00 | 0.06 | 40 | 1019.5 |
| 20260905164721 | 73 | 324 | 5.2 | 10.4 | 0.00 | 0.00 | 0.06 | 40 | 1019.5 |
| 20260905164211 | 73 | 313 | 5.2 | 8.7 | 0.00 | 0.00 | 0.06 | 40 | 1019.3 |
| 20260905163701 | 73 | 315 | 6.1 | 8.7 | 0.00 | 0.00 | 0.06 | 40 | 1019.3 |
| 20260905163151 | 74 | 327 | 4.3 | 7.8 | 0.00 | 0.00 | 0.06 | 39 | 1019.2 |
| 20260905162640 | 74 | 329 | 5.2 | 10.4 | 0.00 | 0.00 | 0.06 | 39 | 1019.2 |
| 20260905162131 | 74 | 308 | 7.0 | 12.2 | 0.00 | 0.00 | 0.06 | 39 | 1019.0 |
| 20260905161620 | 74 | 301 | 6.1 | 11.3 | 0.00 | 0.00 | 0.06 | 39 | 1019.0 |
| 20260905161111 | 75 | 310 | 5.2 | 11.3 | 0.00 | 0.00 | 0.06 | 39 | 1018.9 |
| 20260905160600 | 75 | 318 | 5.2 | 10.4 | 0.00 | 0.00 | 0.06 | 39 | 1018.9 |
| 20260905160104 | 75 | 308 | 5.2 | 7.8 | 0.00 | 0.00 | 0.06 | 39 | 1018.8 |
| 20260905155540 | 75 | 322 | 5.2 | 9.6 | 0.00 | 0.00 | 0.06 | 39 | 1018.8 |
| 20260905155046 | 76 | 339 | 5.2 | 8.7 | 0.00 | 0.00 | 0.06 | 38 | 1018.7 |
| 20260905154520 | 76 | 338 | 5.2 | 8.7 | 0.00 | 0.00 | 0.06 | 38 | 1018.5 |
| 20260905154010 | 76 | 320 | 5.2 | 10.4 | 0.00 | 0.00 | 0.06 | 38 | 1018.5 |
| 20260905153501 | 77 | 323 | 5.2 | 9.6 | 0.00 | 0.00 | 0.06 | 38 | 1018.6 |
| 20260905153005 | 77 | 311 | 4.3 | 10.4 | 0.00 | 0.00 | 0.06 | 38 | 1018.6 |
| 20260905152440 | 77 | 335 | 5.2 | 9.6 | 0.00 | 0.00 | 0.06 | 38 | 1018.4 |
| 20260905151945 | 77 | 327 | 5.2 | 9.6 | 0.00 | 0.00 | 0.06 | 38 | 1018.4 |
| 20260905151420 | 78 | 296 | 4.3 | 7.8 | 0.00 | 0.00 | 0.06 | 37 | 1018.4 |
| 20260905150925 | 78 | 330 | 5.2 | 8.7 | 0.00 | 0.00 | 0.06 | 37 | 1018.4 |
| 20260905150400 | 79 | 296 | 6.1 | 11.3 | 0.00 | 0.00 | 0.06 | 37 | 1018.5 |
| 20260905145850 | 79 | 310 | 5.2 | 8.7 | 0.00 | 0.00 | 0.06 | 37 | 1018.5 |
| 20260905145355 | 79 | 315 | 4.3 | 7.0 | 0.00 | 0.00 | 0.06 | 36 | 1018.4 |
| 20260905144830 | 79 | 308 | 6.1 | 11.3 | 0.00 | 0.00 | 0.06 | 36 | 1018.4 |
| 20260905144320 | 80 | 310 | 5.2 | 11.3 | 0.00 | 0.00 | 0.06 | 35 | 1018.4 |
| 20260905143810 | 80 | 298 | 5.2 | 11.3 | 0.00 | 0.00 | 0.06 | 35 | 1018.4 |
| 20260905143300 | 80 | 296 | 6.1 | 8.7 | 0.00 | 0.00 | 0.06 | 38 | 1018.3 |
| 20260905142750 | 80 | 325 | 3.5 | 7.0 | 0.00 | 0.00 | 0.06 | 38 | 1018.3 |
| 20260905142239 | 79 | 295 | 6.1 | 14.8 | 0.00 | 0.00 | 0.06 | 37 | 1018.5 |
| 20260905141745 | 79 | 302 | 6.1 | 9.6 | 0.00 | 0.00 | 0.06 | 37 | 1018.5 |
| 20260905141219 | 79 | 299 | 6.1 | 10.4 | 0.00 | 0.00 | 0.06 | 37 | 1018.5 |
| 20260905140710 | 79 | 298 | 7.0 | 12.2 | 0.00 | 0.00 | 0.06 | 37 | 1018.5 |
| 20260905140200 | 79 | 308 | 6.1 | 10.4 | 0.00 | 0.00 | 0.06 | 37 | 1018.5 |
| 20260905135705 | 79 | 312 | 7.0 | 13.0 | 0.00 | 0.00 | 0.06 | 37 | 1018.6 |
| 20260905135139 | 79 | 284 | 6.1 | 10.4 | 0.00 | 0.00 | 0.06 | 37 | 1018.6 |
| 20260905134630 | 79 | 302 | 7.0 | 11.3 | 0.00 | 0.00 | 0.06 | 36 | 1018.6 |
| 20260905134119 | 79 | 311 | 7.8 | 13.9 | 0.00 | 0.00 | 0.06 | 36 | 1018.6 |
| 20260905133625 | 78 | 330 | 7.0 | 13.9 | 0.00 | 0.00 | 0.06 | 36 | 1018.6 |
| 20260905133059 | 78 | 322 | 6.1 | 11.3 | 0.00 | 0.00 | 0.06 | 36 | 1018.6 |
| 20260905132605 | 79 | 279 | 7.0 | 11.3 | 0.00 | 0.00 | 0.06 | 38 | 1018.7 |
| 20260905132039 | 79 | 322 | 7.0 | 11.3 | 0.00 | 0.00 | 0.06 | 38 | 1018.7 |
| 20260905131529 | 79 | 315 | 4.3 | 8.7 | 0.00 | 0.00 | 0.06 | 39 | 1018.6 |
| 20260905131019 | 79 | 334 | 4.3 | 6.1 | 0.00 | 0.00 | 0.06 | 39 | 1018.6 |
| 20260905130509 | 79 | 329 | 5.2 | 8.7 | 0.00 | 0.00 | 0.06 | 40 | 1018.6 |
| 20260905130014 | 79 | 321 | 5.2 | 10.4 | 0.00 | 0.00 | 0.06 | 40 | 1018.6 |
| 20260905125449 | 78 | 270 | 4.3 | 9.6 | 0.00 | 0.00 | 0.06 | 44 | 1018.6 |
| 20260905124939 | 78 | 263 | 4.3 | 8.7 | 0.00 | 0.00 | 0.06 | 44 | 1018.6 |
| 20260905124429 | 77 | 256 | 6.1 | 10.4 | 0.00 | 0.00 | 0.06 | 44 | 1018.7 |
| 20260905123934 | 77 | 263 | 7.0 | 10.4 | 0.00 | 0.00 | 0.06 | 44 | 1018.7 |
| 20260905123409 | 77 | 249 | 4.3 | 8.7 | 0.00 | 0.00 | 0.06 | 46 | 1018.9 |
| 20260905122858 | 77 | 305 | 5.2 | 8.7 | 0.00 | 0.00 | 0.06 | 46 | 1018.9 |
| 20260905122405 | 75 | 327 | 5.2 | 11.3 | 0.00 | 0.00 | 0.06 | 46 | 1019.0 |
| 20260905121838 | 76 | 355 | 5.2 | 9.6 | 0.00 | 0.00 | 0.06 | 44 | 1019.2 |
| 20260905121329 | 76 | 343 | 4.3 | 10.4 | 0.00 | 0.00 | 0.06 | 44 | 1019.2 |
| 20260905120818 | 75 | 353 | 4.3 | 9.6 | 0.00 | 0.00 | 0.06 | 49 | 1019.2 |
| 20260905120309 | 75 | 304 | 4.3 | 10.4 | 0.00 | 0.00 | 0.06 | 49 | 1019.2 |
| 20260905115758 | 75 | 330 | 4.3 | 7.8 | 0.00 | 0.00 | 0.06 | 49 | 1019.4 |
| 20260905115249 | 75 | 317 | 4.3 | 8.7 | 0.00 | 0.00 | 0.06 | 49 | 1019.4 |
| 20260905114753 | 74 | 301 | 4.3 | 8.7 | 0.00 | 0.00 | 0.06 | 52 | 1019.3 |
| 20260905114229 | 74 | 279 | 3.5 | 7.0 | 0.00 | 0.00 | 0.06 | 52 | 1019.3 |
| 20260905113719 | 75 | 267 | 5.2 | 8.7 | 0.00 | 0.00 | 0.06 | 52 | 1019.3 |
| 20260905113209 | 75 | 276 | 4.3 | 8.7 | 0.00 | 0.00 | 0.06 | 52 | 1019.3 |
| 20260905112658 | 73 | 296 | 4.3 | 9.6 | 0.00 | 0.00 | 0.06 | 54 | 1019.4 |
| 20260905112149 | 73 | 310 | 4.3 | 7.0 | 0.00 | 0.00 | 0.06 | 54 | 1019.4 |
| 20260905111638 | 73 | 309 | 4.3 | 7.8 | 0.00 | 0.00 | 0.06 | 52 | 1019.5 |
| 20260905111128 | 73 | 300 | 5.2 | 8.7 | 0.00 | 0.00 | 0.06 | 52 | 1019.5 |
| 20260905110619 | 71 | 302 | 3.5 | 7.0 | 0.00 | 0.00 | 0.06 | 56 | 1019.7 |
| 20260905110109 | 71 | 312 | 3.5 | 6.1 | 0.00 | 0.00 | 0.06 | 56 | 1019.7 |
| 20260905105558 | 72 | 305 | 2.6 | 5.2 | 0.00 | 0.00 | 0.06 | 57 | 1019.7 |
| 20260905105048 | 72 | 273 | 4.3 | 7.0 | 0.00 | 0.00 | 0.06 | 57 | 1019.7 |
| 20260905104553 | 73 | 272 | 4.3 | 7.0 | 0.00 | 0.00 | 0.06 | 52 | 1019.7 |
| 20260905104031 | 73 | 301 | 5.2 | 8.7 | 0.00 | 0.00 | 0.06 | 56 | 1019.7 |
| 20260905103518 | 73 | 275 | 3.5 | 6.1 | 0.00 | 0.00 | 0.06 | 56 | 1019.7 |
| 20260905103009 | 72 | 348 | 3.5 | 6.1 | 0.00 | 0.00 | 0.06 | 59 | 1019.6 |
| 20260905102458 | 72 | 338 | 3.5 | 7.0 | 0.00 | 0.00 | 0.06 | 59 | 1019.6 |
| 20260905101948 | 71 | 292 | 3.5 | 7.0 | 0.00 | 0.00 | 0.06 | 58 | 1019.7 |
| 20260905101438 | 71 | 292 | 3.5 | 7.0 | 0.00 | 0.00 | 0.06 | 58 | 1019.7 |
| 20260905100943 | 70 | 324 | 3.5 | 7.0 | 0.00 | 0.00 | 0.06 | 61 | 1019.8 |
| 20260905100418 | 70 | 355 | 3.5 | 7.8 | 0.00 | 0.00 | 0.06 | 61 | 1019.8 |
| 20260905095908 | 70 | 299 | 2.6 | 5.2 | 0.00 | 0.00 | 0.06 | 62 | 1019.8 |
| 20260905095358 | 70 | 328 | 3.5 | 7.8 | 0.00 | 0.00 | 0.06 | 62 | 1019.8 |
| 20260905094848 | 69 | 309 | 3.5 | 9.6 | 0.00 | 0.00 | 0.06 | 66 | 1019.8 |
| 20260905094338 | 69 | 332 | 3.5 | 6.1 | 0.00 | 0.00 | 0.06 | 66 | 1019.8 |
| 20260905093829 | 70 | 288 | 4.3 | 7.0 | 0.00 | 0.00 | 0.06 | 66 | 1020.1 |
| 20260905093333 | 70 | 270 | 4.3 | 7.8 | 0.00 | 0.00 | 0.06 | 66 | 1020.1 |
| 20260905092809 | 68 | 307 | 4.3 | 7.8 | 0.00 | 0.00 | 0.06 | 65 | 1020.2 |
| 20260905092257 | 68 | 317 | 4.3 | 7.8 | 0.00 | 0.00 | 0.06 | 65 | 1020.2 |
| 20260905091803 | 67 | 298 | 4.3 | 6.1 | 0.00 | 0.00 | 0.06 | 69 | 1020.5 |
| 20260905091237 | 67 | 313 | 3.5 | 7.0 | 0.00 | 0.00 | 0.06 | 69 | 1020.5 |
| 20260905090728 | 67 | 277 | 3.5 | 7.0 | 0.00 | 0.00 | 0.06 | 72 | 1020.5 |
| 20260905090217 | 67 | 296 | 3.5 | 7.8 | 0.00 | 0.00 | 0.06 | 72 | 1020.5 |
| 20260905085708 | 66 | 291 | 3.5 | 7.8 | 0.00 | 0.00 | 0.06 | 72 | 1020.5 |
| 20260905085157 | 65 | 288 | 4.3 | 7.8 | 0.00 | 0.00 | 0.06 | 75 | 1020.6 |
| 20260905084703 | 65 | 297 | 3.5 | 7.8 | 0.00 | 0.00 | 0.06 | 75 | 1020.6 |
| 20260905084137 | 65 | 301 | 3.5 | 5.2 | 0.00 | 0.00 | 0.06 | 79 | 1020.6 |
| 20260905083627 | 65 | 299 | 2.6 | 5.2 | 0.00 | 0.00 | 0.06 | 79 | 1020.6 |
| 20260905083118 | 65 | 270 | 1.7 | 3.5 | 0.00 | 0.00 | 0.06 | 82 | 1020.4 |
| 20260905082608 | 65 | 291 | 2.6 | 4.3 | 0.00 | 0.00 | 0.06 | 82 | 1020.4 |
| 20260905082057 | 64 | 356 | 1.7 | 3.5 | 0.00 | 0.00 | 0.06 | 81 | 1020.2 |
| 20260905081603 | 64 | 333 | 1.7 | 3.5 | 0.00 | 0.00 | 0.06 | 81 | 1020.2 |
| 20260905081037 | 64 | 321 | 2.6 | 6.1 | 0.00 | 0.00 | 0.06 | 84 | 1019.9 |
| 20260905080527 | 64 | 292 | 2.6 | 5.2 | 0.00 | 0.00 | 0.06 | 84 | 1019.9 |
| 20260905080017 | 64 | 284 | 2.6 | 5.2 | 0.00 | 0.00 | 0.06 | 89 | 1019.8 |
| 20260905075507 | 64 | 303 | 2.6 | 5.2 | 0.00 | 0.00 | 0.06 | 89 | 1019.8 |
| 20260905074957 | 63 | 280 | 1.7 | 4.3 | 0.00 | 0.00 | 0.06 | 88 | 1019.7 |
| 20260905074447 | 63 | 287 | 2.6 | 3.5 | 0.00 | 0.00 | 0.06 | 88 | 1019.7 |
| 20260905073936 | 63 | 286 | 1.7 | 3.5 | 0.00 | 0.00 | 0.06 | 86 | 1019.0 |
| 20260905073443 | 63 | 245 | 1.7 | 3.5 | 0.00 | 0.00 | 0.06 | 86 | 1019.0 |
| 20260905072917 | 63 | 239 | 2.6 | 4.3 | 0.00 | 0.00 | 0.06 | 87 | 1018.9 |
| 20260905072407 | 63 | 243 | 2.6 | 3.5 | 0.00 | 0.00 | 0.06 | 87 | 1018.9 |
| 20260905071912 | 63 | 225 | 1.7 | 3.5 | 0.00 | 0.00 | 0.06 | 87 | 1019.0 |
| 20260905071347 | 63 | 258 | 1.7 | 3.5 | 0.00 | 0.00 | 0.06 | 88 | 1019.3 |
| 20260905070837 | 63 | 253 | 1.7 | 2.6 | 0.00 | 0.00 | 0.06 | 88 | 1019.3 |
| 20260905070327 | 63 | 270 | 0.9 | 3.5 | 0.00 | 0.00 | 0.06 | 88 | 1019.2 |
| 20260905065817 | 63 | 268 | 1.7 | 3.5 | 0.00 | 0.00 | 0.06 | 88 | 1019.2 |
| 20260905065307 | 63 | 217 | 1.7 | 3.5 | 0.00 | 0.00 | 0.06 | 87 | 1019.5 |
| 20260905064756 | 63 | 246 | 1.7 | 2.6 | 0.00 | 0.00 | 0.06 | 87 | 1019.5 |
| 20260905064302 | 63 | 266 | 2.6 | 4.3 | 0.01 | 0.00 | 0.06 | 89 | 1019.0 |
| 20260905063736 | 63 | 253 | 1.7 | 2.6 | 0.01 | 0.00 | 0.06 | 89 | 1019.0 |
| 20260905063227 | 63 | 248 | 0.0 | 0.0 | 0.01 | 0.00 | 0.06 | 87 | 1018.5 |
| 20260905062716 | 63 | 159 | 0.0 | 0.0 | 0.01 | 0.00 | 0.06 | 87 | 1018.5 |
| 20260905062207 | 63 | 250 | 0.0 | 0.0 | 0.01 | 0.00 | 0.06 | 89 | 1018.5 |
| 20260905061657 | 63 | 26 | 0.0 | 0.0 | 0.01 | 0.00 | 0.06 | 89 | 1018.5 |
| 20260905061147 | 62 | 72 | 0.0 | 0.9 | 0.01 | 0.00 | 0.06 | 89 | 1019.0 |
| 20260905060636 | 62 | 310 | 0.0 | 0.9 | 0.02 | 0.00 | 0.06 | 89 | 1019.0 |
| 20260905060127 | 63 | 347 | 0.9 | 1.7 | 0.02 | 0.00 | 0.06 | 86 | 1018.3 |
| 20260905055616 | 63 | 163 | 0.9 | 0.9 | 0.02 | 0.00 | 0.06 | 86 | 1018.3 |
| 20260905055106 | 62 | 167 | 1.7 | 1.7 | 0.02 | 0.00 | 0.06 | 86 | 1018.4 |
| 20260905054556 | 62 | 202 | 0.9 | 1.7 | 0.02 | 0.00 | 0.06 | 86 | 1018.4 |
| 20260905054047 | 63 | 55 | 0.9 | 1.7 | 0.01 | 0.00 | 0.04 | 83 | 1018.4 |
| 20260905053551 | 63 | 44 | 0.9 | 1.7 | 0.01 | 0.00 | 0.04 | 83 | 1018.4 |
| 20260905053032 | 63 | 355 | 0.9 | 1.7 | 0.01 | 0.00 | 0.04 | 85 | 1018.2 |
| 20260905052531 | 63 | 53 | 0.9 | 1.7 | 0.01 | 0.00 | 0.04 | 85 | 1018.5 |
| 20260905052021 | 63 | 36 | 0.9 | 3.5 | 0.01 | 0.00 | 0.04 | 85 | 1018.5 |
| 20260905051456 | 63 | 315 | 1.7 | 3.5 | 0.01 | 0.00 | 0.04 | 83 | 1018.1 |
| 20260905050947 | 63 | 315 | 1.7 | 2.6 | 0.02 | 0.00 | 0.04 | 83 | 1018.1 |
| 20260905050436 | 63 | 298 | 2.6 | 6.1 | 0.03 | 0.00 | 0.03 | 87 | 1018.3 |
| 20260905045926 | 63 | 279 | 2.6 | 3.5 | 0.03 | 0.00 | 0.03 | 87 | 1018.3 |
| 20260905045416 | 64 | 283 | 0.9 | 2.6 | 0.03 | 0.00 | 0.03 | 82 | 1017.1 |
| 20260905044907 | 64 | 58 | 0.0 | 0.9 | 0.03 | 0.00 | 0.03 | 82 | 1017.1 |
| 20260905044356 | 64 | 58 | 0.9 | 2.6 | 0.03 | 0.00 | 0.03 | 82 | 1017.5 |
| 20260905043901 | 64 | 13 | 0.9 | 2.6 | 0.03 | 0.00 | 0.03 | 82 | 1017.5 |
| 20260905043350 | 64 | 319 | 1.7 | 2.6 | 0.03 | 0.00 | 0.03 | 80 | 1017.0 |
| 20260905042826 | 64 | 38 | 1.7 | 4.3 | 0.03 | 0.00 | 0.03 | 80 | 1017.0 |
| 20260905042318 | 65 | 28 | 1.7 | 3.5 | 0.03 | 0.00 | 0.03 | 76 | 1016.7 |
| 20260905041821 | 65 | 40 | 4.3 | 9.6 | 0.03 | 0.00 | 0.03 | 76 | 1016.7 |
| 20260905041311 | 67 | 12 | 4.3 | 9.6 | 0.02 | 0.00 | 0.02 | 70 | 1016.9 |
| 20260905040801 | 67 | 0 | 5.2 | 6.1 | 0.01 | 0.00 | 0.02 | 70 | 1016.9 |
| 20260905040236 | 68 | 4 | 2.6 | 5.2 | 0.00 | 0.00 | 0.00 | 67 | 1015.9 |
| 20260905035727 | 68 | 27 | 2.6 | 5.2 | 0.00 | 0.00 | 0.00 | 67 | 1015.9 |
| 20260905035216 | 68 | 36 | 2.6 | 4.3 | 0.00 | 0.00 | 0.00 | 66 | 1015.5 |
| 20260905034706 | 68 | 22 | 2.6 | 4.3 | 0.00 | 0.00 | 0.00 | 66 | 1015.4 |
| 20260905034211 | 68 | 45 | 2.6 | 5.2 | 0.00 | 0.00 | 0.00 | 66 | 1015.4 |
| 20260905033646 | 68 | 31 | 2.6 | 5.2 | 0.00 | 0.00 | 0.00 | 66 | 1015.3 |
| 20260905033135 | 68 | 32 | 2.6 | 5.2 | 0.00 | 0.00 | 0.00 | 66 | 1015.3 |
| 20260905032626 | 69 | 49 | 2.6 | 4.3 | 0.00 | 0.00 | 0.00 | 65 | 1015.1 |
| 20260905032115 | 69 | 41 | 1.7 | 4.3 | 0.00 | 0.00 | 0.00 | 65 | 1015.1 |
| 20260905031621 | 69 | 54 | 2.6 | 6.1 | 0.00 | 0.00 | 0.00 | 64 | 1014.9 |
| 20260905031055 | 69 | 53 | 2.6 | 4.3 | 0.00 | 0.00 | 0.00 | 64 | 1014.9 |
| 20260905030601 | 70 | 56 | 2.6 | 5.2 | 0.00 | 0.00 | 0.00 | 62 | 1014.9 |
| 20260905030035 | 70 | 50 | 2.6 | 5.2 | 0.00 | 0.00 | 0.00 | 62 | 1014.9 |
| 20260905025526 | 70 | 40 | 3.5 | 7.8 | 0.00 | 0.00 | 0.00 | 61 | 1014.9 |
| 20260905025015 | 70 | 22 | 4.3 | 8.7 | 0.00 | 0.00 | 0.00 | 61 | 1014.9 |
| 20260905024505 | 71 | 54 | 3.5 | 7.8 | 0.00 | 0.00 | 0.00 | 60 | 1014.6 |
| 20260905023955 | 71 | 21 | 3.5 | 8.7 | 0.00 | 0.00 | 0.00 | 60 | 1014.6 |
| 20260905023446 | 71 | 31 | 4.3 | 7.8 | 0.00 | 0.00 | 0.00 | 61 | 1014.3 |
| 20260905022935 | 71 | 38 | 4.3 | 8.7 | 0.00 | 0.00 | 0.00 | 61 | 1014.3 |
| 20260905022425 | 72 | 18 | 4.3 | 10.4 | 0.00 | 0.00 | 0.00 | 60 | 1014.3 |
| 20260905021915 | 72 | 19 | 4.3 | 9.6 | 0.00 | 0.00 | 0.00 | 60 | 1014.3 |
| 20260905021405 | 73 | 2 | 3.5 | 9.6 | 0.00 | 0.00 | 0.00 | 60 | 1014.3 |
| 20260905020855 | 73 | 13 | 5.2 | 10.4 | 0.00 | 0.00 | 0.00 | 61 | 1014.1 |
| 20260905020345 | 73 | 347 | 6.1 | 11.3 | 0.00 | 0.00 | 0.00 | 61 | 1014.1 |
| 20260905015835 | 73 | 18 | 7.0 | 12.2 | 0.00 | 0.00 | 0.00 | 62 | 1013.9 |
| 20260905015325 | 73 | 4 | 7.0 | 13.0 | 0.00 | 0.00 | 0.00 | 62 | 1013.9 |
| 20260905014814 | 69 | 353 | 5.2 | 3.5 | 0.00 | 0.00 | 0.00 | 72 | 1013.3 |
| 20260905014305 | 69 | 319 | 0.9 | 2.6 | 0.00 | 0.00 | 0.00 | 72 | 1013.3 |
| 20260905013755 | 68 | 19 | 0.9 | 2.6 | 0.00 | 0.00 | 0.00 | 76 | 1013.1 |
| 20260905013245 | 68 | 345 | 0.9 | 1.7 | 0.00 | 0.00 | 0.00 | 76 | 1013.1 |
| 20260905012749 | 68 | 32 | 0.0 | 0.9 | 0.00 | 0.00 | 0.00 | 78 | 1012.8 |
| 20260905012225 | 68 | 41 | 0.0 | 0.9 | 0.00 | 0.00 | 0.00 | 78 | 1012.8 |
| 20260905011714 | 68 | 142 | 0.0 | 0.9 | 0.00 | 0.00 | 0.00 | 78 | 1012.9 |
| 20260905011205 | 68 | 347 | 0.0 | 1.7 | 0.00 | 0.00 | 0.00 | 78 | 1012.9 |
| 20260905010709 | 68 | 232 | 0.0 | 0.0 | 0.00 | 0.00 | 0.00 | 79 | 1012.7 |
| 20260905010200 | 68 | 90 | 0.0 | 0.0 | 0.00 | 0.00 | 0.00 | 79 | 1012.7 |
| 20260905005636 | 68 | 63 | 0.0 | 0.0 | 0.00 | 0.00 | 0.00 | 79 | 1012.5 |
| 20260905005124 | 68 | 117 | 0.0 | 0.0 | 0.00 | 0.00 | 0.00 | 79 | 1012.5 |
| 20260905004629 | 68 | 148 | 0.0 | 0.0 | 0.00 | 0.00 | 0.00 | 77 | 1012.4 |
| 20260905004119 | 68 | 145 | 0.0 | 0.0 | 0.00 | 0.00 | 0.00 | 77 | 1012.4 |
| 20260905003554 | 69 | 90 | 0.0 | 0.0 | 0.00 | 0.00 | 0.00 | 77 | 1012.4 |
| 20260905003045 | 69 | 95 | 0.0 | 0.0 | 0.00 | 0.00 | 0.00 | 77 | 1012.4 |
| 20260905002534 | 69 | 93 | 0.0 | 0.0 | 0.00 | 0.00 | 0.00 | 77 | 1012.3 |
| 20260905002031 | 69 | 183 | 0.0 | 0.0 | 0.00 | 0.00 | 0.00 | 76 | 1012.2 |
| 20260905001529 | 69 | 117 | 0.0 | 0.0 | 0.00 | 0.00 | 0.00 | 76 | 1012.2 |
| 20260905001005 | 69 | 72 | 0.0 | 0.0 | 0.00 | 0.00 | 0.00 | 75 | 1012.2 |
| 20260905000509 | 69 | 99 | 0.9 | 1.7 | 0.00 | 0.00 | 0.00 | 75 | 1012.2 |
| 20260904235944 | 69 | 81 | 0.0 | 0.9 | 0.00 | 0.00 | 0.00 | 75 | 1012.1 |
| 20260904235449 | 69 | 103 | 0.0 | 1.7 | 0.00 | 0.00 | 0.00 | 75 | 1012.1 |
| 20260904234924 | 69 | 58 | 0.0 | 0.0 | 0.00 | 0.00 | 0.00 | 75 | 1012.0 |
| 20260904234414 | 69 | 72 | 0.0 | 0.0 | 0.00 | 0.00 | 0.00 | 75 | 1012.0 |
| 20260904233904 | 70 | 92 | 0.0 | 0.0 | 0.00 | 0.00 | 0.00 | 72 | 1012.1 |
| 20260904233354 | 70 | 45 | 0.0 | 0.0 | 0.00 | 0.00 | 0.00 | 72 | 1012.1 |
| 20260904232844 | 71 | 54 | 0.0 | 0.0 | 0.00 | 0.00 | 0.00 | 66 | 1011.9 |
| 20260904232333 | 71 | 195 | 0.0 | 1.7 | 0.00 | 0.00 | 0.00 | 66 | 1011.9 |
| 20260904231824 | 71 | 238 | 0.9 | 1.7 | 0.00 | 0.00 | 0.00 | 63 | 1012.0 |
| 20260904231314 | 71 | 261 | 0.9 | 3.5 | 0.00 | 0.00 | 0.00 | 63 | 1012.0 |
| 20260904230805 | 69 | 230 | 1.7 | 3.5 | 0.00 | 0.00 | 0.00 | 66 | 1011.9 |
| 20260904230254 | 69 | 209 | 0.9 | 2.6 | 0.00 | 0.00 | 0.00 | 66 | 1011.9 |
| 20260904225744 | 68 | 164 | 0.9 | 1.7 | 0.00 | 0.00 | 0.00 | 68 | 1012.0 |
| 20260904225233 | 68 | 153 | 0.9 | 1.7 | 0.00 | 0.00 | 0.00 | 68 | 1012.0 |
| 20260904224724 | 68 | 117 | 0.0 | 0.0 | 0.00 | 0.00 | 0.00 | 68 | 1012.0 |
| 20260904224214 | 68 | 111 | 0.0 | 0.9 | 0.00 | 0.00 | 0.00 | 69 | 1012.0 |
| 20260904223704 | 68 | 94 | 0.0 | 0.0 | 0.00 | 0.00 | 0.00 | 69 | 1012.0 |
| 20260904223153 | 68 | 94 | 0.0 | 0.0 | 0.00 | 0.00 | 0.00 | 67 | 1011.9 |
| 20260904222643 | 68 | 99 | 0.0 | 0.9 | 0.00 | 0.00 | 0.00 | 67 | 1011.9 |
| 20260904222133 | 69 | 99 | 0.0 | 0.9 | 0.00 | 0.00 | 0.00 | 66 | 1011.9 |
| 20260904221625 | 69 | 99 | 0.0 | 0.0 | 0.00 | 0.00 | 0.00 | 66 | 1011.9 |
| 20260904221128 | 69 | 112 | 0.0 | 0.9 | 0.00 | 0.00 | 0.00 | 67 | 1012.0 |
| 20260904220603 | 69 | 132 | 0.9 | 1.7 | 0.00 | 0.00 | 0.00 | 67 | 1012.0 |
| 20260904220004 | 69 | 135 | 0.0 | 1.7 | 0.00 | 0.00 | 0.00 | 66 | 1011.9 |
| 20260904215558 | 69 | 97 | 0.9 | 0.9 | 0.00 | 0.00 | 0.00 | 66 | 1011.9 |
| 20260904215033 | 69 | 90 | 0.9 | 1.7 | 0.00 | 0.00 | 0.00 | 66 | 1011.9 |
| 20260904214523 | 69 | 72 | 0.9 | 1.7 | 0.00 | 0.00 | 0.00 | 66 | 1011.9 |
| 20260904214014 | 70 | 77 | 0.0 | 0.9 | 0.00 | 0.00 | 0.00 | 64 | 1011.7 |
| 20260904213505 | 70 | 117 | 0.0 | 0.9 | 0.00 | 0.00 | 0.00 | 64 | 1011.7 |
| 20260904212955 | 70 | 131 | 0.9 | 1.7 | 0.00 | 0.00 | 0.00 | 65 | 1011.8 |
| 20260904212443 | 70 | 95 | 0.9 | 1.7 | 0.00 | 0.00 | 0.00 | 65 | 1011.8 |
| 20260904211933 | 70 | 126 | 0.9 | 2.6 | 0.00 | 0.00 | 0.00 | 63 | 1011.9 |